Terminal Aerodrome Forecast
Issued by NWS

Home | Current Version | Previous Version | Text Only | Print | Product List | Glossary On
Versions: 1 2 3 4 5 6 7 8 9 10 11 12 13 14 15 16 17 18 19
000
FTUS45 KRIW 310527
TAFCPR
TAF
KCPR 310527Z 3106/0106 05010KT P6SM SCT030 OVC045
     FM311100 31006KT P6SM SCT035 OVC045
     FM311600 31008KT P6SM SCT040
     FM311800 31014G22KT P6SM SCT050
     FM010000 01011KT P6SM FEW060
     FM010400 06006KT P6SM SKC=

USA.gov is the U.S. government's official web portal to all federal, state and local government web resources and services.